Time,TemperatureF,DewpointF,PressureIn,WindDirection,WindDirectionDegrees,WindSpeedMPH,WindSpeedGustMPH,Humidity,HourlyPrecipIn,Conditions,Clouds,dailyrainin,SolarRadiationWatts/m^2,SoftwareType,DateUTC
2013-05-14 00:00:00,72.2,34.4,29.34,West,276,4.0,6.0,25,0.00,,,0.00,0,Wunderground v.1.15,2013-05-14 06:00:00,
2013-05-14 00:10:00,71.3,33.6,29.34,West,264,5.0,5.0,25,0.00,,,0.00,0,Wunderground v.1.15,2013-05-14 06:10:00,
2013-05-14 00:15:00,71.1,33.5,29.34,WSW,252,4.0,5.0,25,0.00,,,0.00,0,Wunderground v.1.15,2013-05-14 06:15:00,
2013-05-14 00:20:00,70.9,33.3,29.34,WNW,289,5.0,5.0,25,0.00,,,0.00,0,Wunderground v.1.15,2013-05-14 06:20:00,
2013-05-14 00:25:00,70.7,33.1,29.35,WNW,288,6.0,6.0,25,0.00,,,0.00,0,Wunderground v.1.15,2013-05-14 06:25:00,
2013-05-14 00:30:00,70.8,33.2,29.35,West,274,4.0,8.0,25,0.00,,,0.00,0,Wunderground v.1.15,2013-05-14 06:30:00,
2013-05-14 00:40:00,70.1,33.6,29.35,West,271,6.0,7.0,26,0.00,,,0.00,0,Wunderground v.1.15,2013-05-14 06:40:00,
2013-05-14 00:45:00,69.8,34.3,29.35,West,266,6.0,10.0,27,0.00,,,0.00,0,Wunderground v.1.15,2013-05-14 06:45:00,
2013-05-14 00:50:00,68.9,33.5,29.35,West,266,6.0,7.0,27,0.00,,,0.00,0,Wunderground v.1.15,2013-05-14 06:50:00,
2013-05-14 00:55:00,68.4,33.1,29.35,West,276,6.0,7.0,27,0.00,,,0.00,0,Wunderground v.1.15,2013-05-14 06:55:00,
2013-05-14 01:05:00,67.8,33.5,29.36,West,264,7.0,8.0,28,0.00,,,0.00,0,Wunderground v.1.15,2013-05-14 07:05:00,
2013-05-14 01:10:00,67.6,34.2,29.36,WNW,283,8.0,8.0,29,0.00,,,0.00,0,Wunderground v.1.15,2013-05-14 07:10:00,
2013-05-14 01:15:00,67.2,33.0,29.36,West,279,7.0,8.0,28,0.00,,,0.00,0,Wunderground v.1.15,2013-05-14 07:15:00,
2013-05-14 01:20:00,67.1,32.9,29.36,West,274,6.0,6.0,28,0.00,,,0.00,0,Wunderground v.1.15,2013-05-14 07:20:00,
2013-05-14 01:25:00,67.2,32.1,29.36,West,277,7.0,8.0,27,0.00,,,0.00,0,Wunderground v.1.15,2013-05-14 07:25:00,
2013-05-14 01:30:00,67.3,33.1,29.36,WNW,286,6.0,6.0,28,0.00,,,0.00,0,Wunderground v.1.15,2013-05-14 07:30:00,
2013-05-14 01:40:00,67.5,32.3,29.35,West,270,5.0,5.0,27,0.00,,,0.00,0,Wunderground v.1.15,2013-05-14 07:40:00,
2013-05-14 01:50:00,67.5,33.2,29.37,WNW,289,7.0,7.0,28,0.00,,,0.00,0,Wunderground v.1.15,2013-05-14 07:50:00,
2013-05-14 02:00:00,65.6,36.5,29.36,NW,310,13.0,17.0,34,0.00,,,0.00,0,Wunderground v.1.15,2013-05-14 08:00:00,
2013-05-14 02:05:00,64.8,36.5,29.37,WNW,289,14.0,17.0,35,0.00,,,0.00,0,Wunderground v.1.15,2013-05-14 08:05:00,
2013-05-14 02:15:00,63.4,36.7,29.38,NW,311,7.0,12.0,37,0.00,,,0.00,0,Wunderground v.1.15,2013-05-14 08:15:00,
2013-05-14 02:25:00,62.7,36.7,29.39,WNW,295,4.0,4.0,38,0.00,,,0.00,0,Wunderground v.1.15,2013-05-14 08:25:00,
2013-05-14 02:35:00,61.2,36.7,29.39,WNW,301,5.0,7.0,40,0.00,,,0.00,0,Wunderground v.1.15,2013-05-14 08:35:00,
2013-05-14 02:40:00,61.1,36.6,29.39,NNW,332,4.0,4.0,40,0.00,,,0.00,0,Wunderground v.1.15,2013-05-14 08:40:00,
2013-05-14 02:45:00,60.9,37.0,29.39,WNW,295,2.0,4.0,41,0.00,,,0.00,0,Wunderground v.1.15,2013-05-14 08:45:00,
2013-05-14 02:50:00,60.8,36.9,29.40,West,271,3.0,3.0,41,0.00,,,0.00,0,Wunderground v.1.15,2013-05-14 08:50:00,
2013-05-14 02:55:00,60.8,36.9,29.40,West,272,2.0,3.0,41,0.00,,,0.00,0,Wunderground v.1.15,2013-05-14 08:55:00,
2013-05-14 03:05:00,60.0,36.8,29.40,NW,324,3.0,4.0,42,0.00,,,0.00,0,Wunderground v.1.15,2013-05-14 09:05:00,
2013-05-14 03:10:00,60.0,36.8,29.41,NW,322,2.0,3.0,42,0.00,,,0.00,0,Wunderground v.1.15,2013-05-14 09:10:00,
2013-05-14 03:15:00,59.7,36.6,29.41,WNW,299,3.0,5.0,42,0.00,,,0.00,0,Wunderground v.1.15,2013-05-14 09:15:00,
2013-05-14 03:20:00,59.6,36.5,29.41,WNW,295,4.0,5.0,42,0.00,,,0.00,0,Wunderground v.1.15,2013-05-14 09:20:00,
2013-05-14 03:30:00,59.0,36.5,29.41,NW,317,4.0,5.0,43,0.00,,,0.00,0,Wunderground v.1.15,2013-05-14 09:30:00,
2013-05-14 03:40:00,58.0,36.2,29.42,WNW,295,5.0,5.0,44,0.00,,,0.00,0,Wunderground v.1.15,2013-05-14 09:40:00,
2013-05-14 03:45:00,57.7,37.0,29.42,West,278,6.0,6.0,46,0.00,,,0.00,0,Wunderground v.1.15,2013-05-14 09:45:00,
2013-05-14 03:50:00,57.2,37.1,29.42,WNW,300,7.0,7.0,47,0.00,,,0.00,0,Wunderground v.1.15,2013-05-14 09:50:00,
2013-05-14 03:55:00,56.8,37.8,29.43,NW,312,8.0,12.0,49,0.00,,,0.00,0,Wunderground v.1.15,2013-05-14 09:55:00,
2013-05-14 04:00:00,56.3,37.4,29.43,WNW,300,9.0,9.0,49,0.00,,,0.00,0,Wunderground v.1.15,2013-05-14 10:00:00,
2013-05-14 04:05:00,55.9,37.5,29.43,NW,324,9.0,9.0,50,0.00,,,0.00,0,Wunderground v.1.15,2013-05-14 10:05:00,
2013-05-14 04:10:00,55.7,37.3,29.43,West,273,8.0,8.0,50,0.00,,,0.00,0,Wunderground v.1.15,2013-05-14 10:10:00,
2013-05-14 04:15:00,56.0,37.6,29.44,WNW,296,10.0,10.0,50,0.00,,,0.00,0,Wunderground v.1.15,2013-05-14 10:15:00,
2013-05-14 04:25:00,55.9,38.0,29.44,WNW,287,9.0,10.0,51,0.00,,,0.00,0,Wunderground v.1.15,2013-05-14 10:25:00,
2013-05-14 04:30:00,55.9,38.0,29.44,West,276,8.0,8.0,51,0.00,,,0.00,0,Wunderground v.1.15,2013-05-14 10:30:00,
2013-05-14 04:40:00,55.6,38.2,29.45,WNW,292,6.0,6.0,52,0.00,,,0.00,0,Wunderground v.1.15,2013-05-14 10:40:00,
2013-05-14 04:45:00,55.3,38.0,29.45,WNW,285,5.0,6.0,52,0.00,,,0.00,0,Wunderground v.1.15,2013-05-14 10:45:00,
2013-05-14 04:50:00,55.1,38.3,29.45,NW,314,3.0,3.0,53,0.00,,,0.00,0,Wunderground v.1.15,2013-05-14 10:50:00,
2013-05-14 04:55:00,54.9,37.6,29.45,NW,314,2.0,3.0,52,0.00,,,0.00,0,Wunderground v.1.15,2013-05-14 10:55:00,
2013-05-14 05:05:00,54.5,37.7,29.45,NW,314,2.0,3.0,53,0.00,,,0.00,0,Wunderground v.1.15,2013-05-14 11:05:00,
2013-05-14 05:10:00,54.3,38.0,29.45,NW,314,2.0,2.0,54,0.00,,,0.00,0,Wunderground v.1.15,2013-05-14 11:10:00,
2013-05-14 05:15:00,54.1,37.8,29.45,NW,313,2.0,2.0,54,0.00,,,0.00,0,Wunderground v.1.15,2013-05-14 11:15:00,
2013-05-14 05:20:00,53.8,38.0,29.45,NW,314,2.0,2.0,55,0.00,,,0.00,0,Wunderground v.1.15,2013-05-14 11:20:00,
2013-05-14 05:25:00,53.6,37.8,29.45,NW,313,1.0,2.0,55,0.00,,,0.00,0,Wunderground v.1.15,2013-05-14 11:25:00,
2013-05-14 05:30:00,53.5,38.2,29.45,NW,314,1.0,1.0,56,0.00,,,0.00,0,Wunderground v.1.15,2013-05-14 11:30:00,
2013-05-14 05:40:00,53.0,38.2,29.46,NW,313,2.0,2.0,57,0.00,,,0.00,0,Wunderground v.1.15,2013-05-14 11:40:00,
2013-05-14 05:45:00,52.9,38.1,29.46,NW,314,3.0,4.0,57,0.00,,,0.00,0,Wunderground v.1.15,2013-05-14 11:45:00,
2013-05-14 05:50:00,52.7,38.3,29.46,NW,314,3.0,3.0,58,0.00,,,0.00,0,Wunderground v.1.15,2013-05-14 11:50:00,
2013-05-14 05:55:00,52.5,38.1,29.47,NW,313,3.0,3.0,58,0.00,,,0.00,5,Wunderground v.1.15,2013-05-14 11:55:00,
2013-05-14 06:00:00,52.3,38.4,29.47,NW,314,3.0,3.0,59,0.00,,,0.00,7,Wunderground v.1.15,2013-05-14 12:00:00,
2013-05-14 06:05:00,52.2,38.7,29.47,NW,313,3.0,3.0,60,0.00,,,0.00,11,Wunderground v.1.15,2013-05-14 12:05:00,
2013-05-14 06:15:00,52.0,38.5,29.47,NW,313,2.0,2.0,60,0.00,,,0.00,14,Wunderground v.1.15,2013-05-14 12:15:00,
2013-05-14 06:20:00,52.0,38.5,29.47,NW,313,1.0,1.0,60,0.00,,,0.00,16,Wunderground v.1.15,2013-05-14 12:20:00,
2013-05-14 06:30:00,51.8,38.8,29.48,NW,314,1.0,1.0,61,0.00,,,0.00,18,Wunderground v.1.15,2013-05-14 12:30:00,
2013-05-14 06:35:00,51.7,38.3,29.48,NW,313,1.0,1.0,60,0.00,,,0.00,19,Wunderground v.1.15,2013-05-14 12:35:00,
2013-05-14 06:40:00,51.7,38.7,29.49,NW,313,0.0,2.0,61,0.00,,,0.00,21,Wunderground v.1.15,2013-05-14 12:40:00,
2013-05-14 06:50:00,51.8,38.8,29.49,NW,313,0.0,0.0,61,0.00,,,0.00,23,Wunderground v.1.15,2013-05-14 12:50:00,
2013-05-14 06:55:00,51.8,38.8,29.49,NW,313,0.0,0.0,61,0.00,,,0.00,25,Wunderground v.1.15,2013-05-14 12:55:00,
2013-05-14 07:00:00,51.8,38.8,29.49,NW,313,0.0,0.0,61,0.00,,,0.00,25,Wunderground v.1.15,2013-05-14 13:00:00,
2013-05-14 07:05:00,51.9,39.3,29.49,NW,314,0.0,0.0,62,0.00,,,0.00,26,Wunderground v.1.15,2013-05-14 13:05:00,
2013-05-14 07:10:00,51.9,38.9,29.50,NW,314,0.0,0.0,61,0.00,,,0.00,26,Wunderground v.1.15,2013-05-14 13:10:00,
2013-05-14 07:20:00,52.1,39.5,29.50,NW,314,0.0,1.0,62,0.00,,,0.00,28,Wunderground v.1.15,2013-05-14 13:20:00,
2013-05-14 07:25:00,52.3,40.1,29.50,NE,56,1.0,2.0,63,0.00,,,0.00,28,Wunderground v.1.15,2013-05-14 13:25:00,
2013-05-14 07:35:00,52.6,39.9,29.50,NE,56,0.0,1.0,62,0.00,,,0.00,30,Wunderground v.1.15,2013-05-14 13:35:00,
2013-05-14 07:45:00,52.8,39.7,29.50,NE,56,0.0,1.0,61,0.00,,,0.00,32,Wunderground v.1.15,2013-05-14 13:45:00,
2013-05-14 07:55:00,53.1,40.0,29.51,NE,56,0.0,0.0,61,0.00,,,0.00,33,Wunderground v.1.15,2013-05-14 13:55:00,
2013-05-14 08:00:00,53.7,41.0,29.51,ENE,68,0.0,3.0,62,0.00,,,0.00,35,Wunderground v.1.15,2013-05-14 14:00:00,
2013-05-14 08:05:00,54.2,40.6,29.51,ENE,68,2.0,3.0,60,0.00,,,0.00,35,Wunderground v.1.15,2013-05-14 14:05:00,
2013-05-14 08:15:00,54.7,41.1,29.51,ENE,68,0.0,1.0,60,0.00,,,0.00,39,Wunderground v.1.15,2013-05-14 14:15:00,
2013-05-14 08:20:00,55.0,41.4,29.51,ENE,68,0.0,0.0,60,0.00,,,0.00,404,Wunderground v.1.15,2013-05-14 14:20:00,
2013-05-14 08:25:00,55.1,41.5,29.51,ENE,68,1.0,1.0,60,0.00,,,0.00,422,Wunderground v.1.15,2013-05-14 14:25:00,
2013-05-14 08:30:00,55.7,42.0,29.51,ENE,68,1.0,1.0,60,0.00,,,0.00,438,Wunderground v.1.15,2013-05-14 14:30:00,
2013-05-14 08:35:00,56.4,42.2,29.50,ENE,68,2.0,4.0,59,0.00,,,0.00,454,Wunderground v.1.15,2013-05-14 14:35:00,
2013-05-14 08:40:00,56.9,42.3,29.50,ENE,68,2.0,2.0,58,0.00,,,0.00,471,Wunderground v.1.15,2013-05-14 14:40:00,
2013-05-14 08:50:00,58.4,43.2,29.50,ENE,68,2.0,2.0,57,0.00,,,0.00,504,Wunderground v.1.15,2013-05-14 14:50:00,
2013-05-14 08:55:00,59.0,43.3,29.50,ENE,68,3.0,3.0,56,0.00,,,0.00,524,Wunderground v.1.15,2013-05-14 14:55:00,
2013-05-14 09:00:00,59.4,43.2,29.50,ENE,68,1.0,1.0,55,0.00,,,0.00,543,Wunderground v.1.15,2013-05-14 15:00:00,
2013-05-14 09:10:00,60.2,44.0,29.51,ENE,63,1.0,1.0,55,0.00,,,0.00,582,Wunderground v.1.15,2013-05-14 15:10:00,
2013-05-14 09:15:00,60.7,44.4,29.51,ENE,64,1.0,1.0,55,0.00,,,0.00,601,Wunderground v.1.15,2013-05-14 15:15:00,
2013-05-14 09:25:00,61.9,45.1,29.51,NE,43,1.0,2.0,54,0.00,,,0.00,635,Wunderground v.1.15,2013-05-14 15:25:00,
2013-05-14 09:30:00,62.3,44.4,29.51,NE,43,1.0,2.0,52,0.00,,,0.00,654,Wunderground v.1.15,2013-05-14 15:30:00,
2013-05-14 09:40:00,63.4,43.9,29.51,NE,35,2.0,3.0,49,0.00,,,0.00,675,Wunderground v.1.15,2013-05-14 15:40:00,
2013-05-14 09:45:00,63.7,44.2,29.51,SE,133,2.0,3.0,49,0.00,,,0.00,677,Wunderground v.1.15,2013-05-14 15:45:00,
2013-05-14 09:50:00,64.0,44.4,29.51,SW,218,2.0,2.0,49,0.00,,,0.00,696,Wunderground v.1.15,2013-05-14 15:50:00,
2013-05-14 09:55:00,64.3,44.7,29.51,NNW,344,2.0,4.0,49,0.00,,,0.00,705,Wunderground v.1.15,2013-05-14 15:55:00,
2013-05-14 10:00:00,64.6,45.0,29.51,NW,316,2.0,2.0,49,0.00,,,0.00,717,Wunderground v.1.15,2013-05-14 16:00:00,
2013-05-14 10:05:00,64.8,44.6,29.51,NE,38,2.0,4.0,48,0.00,,,0.00,731,Wunderground v.1.15,2013-05-14 16:05:00,
2013-05-14 10:10:00,65.0,45.9,29.51,SW,222,3.0,3.0,50,0.00,,,0.00,698,Wunderground v.1.15,2013-05-14 16:10:00,
2013-05-14 10:15:00,65.5,45.3,29.51,NE,41,3.0,3.0,48,0.00,,,0.00,749,Wunderground v.1.15,2013-05-14 16:15:00,
2013-05-14 10:20:00,65.8,45.6,29.51,West,265,2.0,3.0,48,0.00,,,0.00,761,Wunderground v.1.15,2013-05-14 16:20:00,
2013-05-14 10:30:00,66.2,45.9,29.51,SW,219,2.0,2.0,48,0.00,,,0.00,782,Wunderground v.1.15,2013-05-14 16:30:00,
2013-05-14 10:35:00,66.4,45.0,29.51,North,10,2.0,2.0,46,0.00,,,0.00,807,Wunderground v.1.15,2013-05-14 16:35:00,
2013-05-14 10:40:00,66.3,45.5,29.51,SW,216,2.0,4.0,47,0.00,,,0.00,810,Wunderground v.1.15,2013-05-14 16:40:00,
2013-05-14 10:45:00,66.6,45.7,29.51,South,175,3.0,4.0,47,0.00,,,0.00,812,Wunderground v.1.15,2013-05-14 16:45:00,
2013-05-14 10:50:00,66.8,45.9,29.51,ENE,57,3.0,4.0,47,0.00,,,0.00,828,Wunderground v.1.15,2013-05-14 16:50:00,
2013-05-14 10:55:00,66.9,46.0,29.51,NW,320,3.0,4.0,47,0.00,,,0.00,844,Wunderground v.1.15,2013-05-14 16:55:00,
2013-05-14 11:00:00,66.9,46.0,29.52,North,3,2.0,2.0,47,0.00,,,0.00,737,Wunderground v.1.15,2013-05-14 17:00:00,
2013-05-14 11:05:00,66.7,45.8,29.52,South,175,3.0,3.0,47,0.00,,,0.00,842,Wunderground v.1.15,2013-05-14 17:05:00,
2013-05-14 11:10:00,66.6,45.2,29.52,NNW,327,3.0,4.0,46,0.00,,,0.00,854,Wunderground v.1.15,2013-05-14 17:10:00,
2013-05-14 11:15:00,66.7,45.3,29.51,SW,234,3.0,4.0,46,0.00,,,0.00,870,Wunderground v.1.15,2013-05-14 17:15:00,
2013-05-14 11:20:00,67.0,45.5,29.52,NW,316,3.0,3.0,46,0.00,,,0.00,881,Wunderground v.1.15,2013-05-14 17:20:00,
2013-05-14 11:25:00,67.5,46.6,29.51,West,265,3.0,5.0,47,0.00,,,0.00,911,Wunderground v.1.15,2013-05-14 17:25:00,
2013-05-14 11:35:00,68.2,46.0,29.51,SW,220,3.0,3.0,45,0.00,,,0.00,896,Wunderground v.1.15,2013-05-14 17:35:00,
2013-05-14 11:45:00,68.8,46.6,29.51,NE,52,2.0,3.0,45,0.00,,,0.00,865,Wunderground v.1.15,2013-05-14 17:45:00,
2013-05-14 11:50:00,69.1,45.7,29.51,NW,316,2.0,2.0,43,0.00,,,0.00,840,Wunderground v.1.15,2013-05-14 17:50:00,
2013-05-14 11:55:00,68.9,46.1,29.51,NNW,333,3.0,3.0,44,0.00,,,0.00,765,Wunderground v.1.15,2013-05-14 17:55:00,
2013-05-14 12:00:00,68.9,46.1,29.51,SE,140,3.0,3.0,44,0.00,,,0.00,854,Wunderground v.1.15,2013-05-14 18:00:00,
2013-05-14 12:10:00,69.7,45.6,29.51,SE,143,3.0,5.0,42,0.00,,,0.00,814,Wunderground v.1.15,2013-05-14 18:10:00,
2013-05-14 12:15:00,69.9,45.8,29.51,NNE,26,3.0,5.0,42,0.00,,,0.00,749,Wunderground v.1.15,2013-05-14 18:15:00,
2013-05-14 12:20:00,69.8,45.7,29.50,SSE,153,3.0,3.0,42,0.00,,,0.00,712,Wunderground v.1.15,2013-05-14 18:20:00,
2013-05-14 12:25:00,69.8,45.0,29.51,ESE,103,3.0,3.0,41,0.00,,,0.00,598,Wunderground v.1.15,2013-05-14 18:25:00,
2013-05-14 12:30:00,69.9,45.8,29.50,NE,53,3.0,3.0,42,0.00,,,0.00,643,Wunderground v.1.15,2013-05-14 18:30:00,
2013-05-14 12:35:00,70.1,45.9,29.50,ENE,61,2.0,3.0,42,0.00,,,0.00,673,Wunderground v.1.15,2013-05-14 18:35:00,
2013-05-14 12:45:00,70.1,46.6,29.49,SE,141,2.0,2.0,43,0.00,,,0.00,682,Wunderground v.1.15,2013-05-14 18:45:00,
2013-05-14 12:50:00,70.0,44.6,29.49,ESE,120,2.0,3.0,40,0.00,,,0.00,394,Wunderground v.1.15,2013-05-14 18:50:00,
2013-05-14 13:00:00,69.2,44.5,29.49,NE,50,2.0,2.0,41,0.00,,,0.00,392,Wunderground v.1.15,2013-05-14 19:00:00,
2013-05-14 13:05:00,69.3,44.6,29.49,North,5,2.0,2.0,41,0.00,,,0.00,487,Wunderground v.1.15,2013-05-14 19:05:00,
2013-05-14 13:10:00,69.9,44.5,29.49,NW,324,2.0,2.0,40,0.00,,,0.00,772,Wunderground v.1.15,2013-05-14 19:10:00,
2013-05-14 13:15:00,70.6,43.7,29.49,SE,135,2.0,3.0,38,0.00,,,0.00,1028,Wunderground v.1.15,2013-05-14 19:15:00,
2013-05-14 13:25:00,71.7,44.0,29.48,ENE,66,2.0,3.0,37,0.00,,,0.00,802,Wunderground v.1.15,2013-05-14 19:25:00,
2013-05-14 13:35:00,72.1,43.7,29.48,ENE,58,2.0,2.0,36,0.00,,,0.00,670,Wunderground v.1.15,2013-05-14 19:35:00,
2013-05-14 13:40:00,72.2,43.8,29.49,East,95,2.0,2.0,36,0.00,,,0.00,315,Wunderground v.1.15,2013-05-14 19:40:00,
2013-05-14 13:45:00,72.2,43.8,29.48,NE,35,1.0,2.0,36,0.00,,,0.00,993,Wunderground v.1.15,2013-05-14 19:45:00,
2013-05-14 13:50:00,72.9,43.6,29.48,NE,39,2.0,2.0,35,0.00,,,0.00,981,Wunderground v.1.15,2013-05-14 19:50:00,
2013-05-14 14:00:00,74.1,43.9,29.48,ENE,73,2.0,4.0,34,0.00,,,0.00,1072,Wunderground v.1.15,2013-05-14 20:00:00,
2013-05-14 14:05:00,74.2,43.2,29.47,ENE,64,3.0,8.0,33,0.00,,,0.00,865,Wunderground v.1.15,2013-05-14 20:05:00,
2013-05-14 14:10:00,74.2,43.2,29.47,East,96,4.0,4.0,33,0.00,,,0.00,290,Wunderground v.1.15,2013-05-14 20:10:00,
2013-05-14 14:15:00,72.6,43.4,29.47,ESE,102,4.0,4.0,35,0.00,,,0.00,1028,Wunderground v.1.15,2013-05-14 20:15:00,
2013-05-14 14:20:00,73.7,44.3,29.47,East,79,3.0,3.0,35,0.00,,,0.00,1041,Wunderground v.1.15,2013-05-14 20:20:00,
2013-05-14 14:25:00,73.9,43.0,29.47,NE,45,2.0,3.0,33,0.00,,,0.00,308,Wunderground v.1.15,2013-05-14 20:25:00,
2013-05-14 14:35:00,73.5,44.2,29.47,ENE,64,1.0,2.0,35,0.00,,,0.00,243,Wunderground v.1.15,2013-05-14 20:35:00,
2013-05-14 14:40:00,73.1,45.3,29.46,North,2,1.0,5.0,37,0.00,,,0.00,1065,Wunderground v.1.15,2013-05-14 20:40:00,
2013-05-14 14:50:00,73.6,44.2,29.46,SSE,156,2.0,2.0,35,0.00,,,0.00,295,Wunderground v.1.15,2013-05-14 20:50:00,
2013-05-14 15:00:00,72.4,43.2,29.46,North,351,1.0,1.0,35,0.00,,,0.00,206,Wunderground v.1.15,2013-05-14 21:00:00,
2013-05-14 15:10:00,72.0,42.8,29.46,NNW,345,0.0,0.0,35,0.00,,,0.00,197,Wunderground v.1.15,2013-05-14 21:10:00,
2013-05-14 15:15:00,71.8,43.4,29.46,North,360,0.0,0.0,36,0.00,,,0.00,306,Wunderground v.1.15,2013-05-14 21:15:00,
2013-05-14 15:25:00,71.7,43.3,29.46,NNE,18,0.0,1.0,36,0.00,,,0.00,230,Wunderground v.1.15,2013-05-14 21:25:00,
2013-05-14 15:30:00,71.6,43.2,29.46,NNE,17,0.0,0.0,36,0.00,,,0.00,294,Wunderground v.1.15,2013-05-14 21:30:00,
2013-05-14 15:35:00,71.4,44.5,29.45,NNE,32,1.0,3.0,38,0.00,,,0.00,288,Wunderground v.1.15,2013-05-14 21:35:00,
2013-05-14 15:40:00,71.6,43.9,29.45,NE,47,1.0,2.0,37,0.00,,,0.00,292,Wunderground v.1.15,2013-05-14 21:40:00,
2013-05-14 15:50:00,71.8,43.4,29.45,ENE,61,2.0,2.0,36,0.00,,,0.00,127,Wunderground v.1.15,2013-05-14 21:50:00,
2013-05-14 15:55:00,71.7,44.0,29.45,ENE,66,1.0,2.0,37,0.00,,,0.00,116,Wunderground v.1.15,2013-05-14 21:55:00,
2013-05-14 16:00:00,71.3,43.0,29.46,NNW,335,1.0,4.0,36,0.00,,,0.00,100,Wunderground v.1.15,2013-05-14 22:00:00,
2013-05-14 16:05:00,71.1,42.8,29.46,NNW,337,1.0,4.0,36,0.00,,,0.00,109,Wunderground v.1.15,2013-05-14 22:05:00,
2013-05-14 16:10:00,70.7,43.1,29.46,NW,306,1.0,1.0,37,0.00,,,0.00,130,Wunderground v.1.15,2013-05-14 22:10:00,
2013-05-14 16:15:00,70.4,43.6,29.46,NW,308,1.0,1.0,38,0.00,,,0.00,121,Wunderground v.1.15,2013-05-14 22:15:00,
2013-05-14 16:20:00,70.1,43.3,29.46,NW,308,1.0,1.0,38,0.00,,,0.00,67,Wunderground v.1.15,2013-05-14 22:20:00,
2013-05-14 16:25:00,69.6,42.2,29.46,NNW,340,1.0,3.0,37,0.00,,,0.00,111,Wunderground v.1.15,2013-05-14 22:25:00,
2013-05-14 16:35:00,69.4,44.7,29.45,NNW,345,1.0,2.0,41,0.00,,,0.00,202,Wunderground v.1.15,2013-05-14 22:35:00,
2013-05-14 16:40:00,69.0,46.2,29.45,NNW,345,1.0,1.0,44,0.00,,,0.00,160,Wunderground v.1.15,2013-05-14 22:40:00,
2013-05-14 16:45:00,68.9,45.5,29.44,NNW,345,1.0,1.0,43,0.00,,,0.00,156,Wunderground v.1.15,2013-05-14 22:45:00,
2013-05-14 16:55:00,68.5,43.9,29.46,NW,318,1.0,3.0,41,0.00,,,0.00,51,Wunderground v.1.15,2013-05-14 22:55:00,
2013-05-14 17:00:00,68.0,44.7,29.46,NW,314,2.0,7.0,43,0.00,,,0.00,39,Wunderground v.1.15,2013-05-14 23:00:00,
2013-05-14 17:10:00,66.2,44.8,29.46,NW,306,8.0,9.0,46,0.00,,,0.00,26,Wunderground v.1.15,2013-05-14 23:10:00,
2013-05-14 17:15:00,65.4,44.6,29.46,WNW,303,9.0,9.0,47,0.00,,,0.00,42,Wunderground v.1.15,2013-05-14 23:15:00,
2013-05-14 17:20:00,65.1,44.4,29.46,NW,307,8.0,8.0,47,0.00,,,0.00,86,Wunderground v.1.15,2013-05-14 23:20:00,
2013-05-14 17:25:00,65.0,44.8,29.47,WNW,284,7.0,8.0,48,0.00,,,0.00,188,Wunderground v.1.15,2013-05-14 23:25:00,
2013-05-14 17:35:00,65.3,45.1,29.46,SE,129,5.0,7.0,48,0.00,,,0.00,148,Wunderground v.1.15,2013-05-14 23:35:00,
2013-05-14 17:45:00,65.2,45.5,29.47,SSE,157,4.0,4.0,49,0.00,,,0.00,69,Wunderground v.1.15,2013-05-14 23:45:00,
2013-05-14 17:50:00,64.8,44.1,29.46,South,191,4.0,5.0,47,0.00,,,0.00,53,Wunderground v.1.15,2013-05-14 23:50:00,
2013-05-14 17:55:00,64.3,43.6,29.46,SSE,159,6.0,9.0,47,0.00,,,0.00,21,Wunderground v.1.15,2013-05-14 23:55:00,
2013-05-14 18:00:00,63.7,43.1,29.46,SSW,210,7.0,10.0,47,0.00,,,0.00,16,Wunderground v.1.15,2013-05-15 00:00:00,
2013-05-14 18:10:00,64.0,41.0,29.46,SSW,197,7.0,7.0,43,0.00,,,0.00,42,Wunderground v.1.15,2013-05-15 00:10:00,
2013-05-14 18:15:00,64.7,41.1,29.46,South,189,7.0,7.0,42,0.00,,,0.00,72,Wunderground v.1.15,2013-05-15 00:15:00,
2013-05-14 18:20:00,64.8,39.9,29.46,South,175,8.0,8.0,40,0.00,,,0.00,100,Wunderground v.1.15,2013-05-15 00:20:00,
2013-05-14 18:25:00,64.2,40.6,29.46,SSW,195,9.0,9.0,42,0.00,,,0.00,162,Wunderground v.1.15,2013-05-15 00:25:00,
2013-05-14 18:30:00,63.8,41.5,29.47,SW,216,11.0,18.0,44,0.00,,,0.00,176,Wunderground v.1.15,2013-05-15 00:30:00,
2013-05-14 18:35:00,62.9,41.8,29.46,SE,143,12.0,18.0,46,0.00,,,0.00,88,Wunderground v.1.15,2013-05-15 00:35:00,
2013-05-14 18:45:00,62.7,41.6,29.46,South,185,10.0,15.0,46,0.00,,,0.00,23,Wunderground v.1.15,2013-05-15 00:45:00,
2013-05-14 18:55:00,62.8,40.5,29.47,WSW,240,11.0,13.0,44,0.00,,,0.00,97,Wunderground v.1.15,2013-05-15 00:55:00,
2013-05-14 19:00:00,63.5,40.6,29.47,South,175,14.0,14.0,43,0.00,,,0.00,279,Wunderground v.1.15,2013-05-15 01:00:00,
2013-05-14 19:10:00,63.1,42.0,29.46,SSE,157,12.0,17.0,46,0.00,,,0.00,148,Wunderground v.1.15,2013-05-15 01:10:00,
2013-05-14 19:20:00,61.5,42.2,29.46,South,175,14.0,14.0,49,0.00,,,0.00,72,Wunderground v.1.15,2013-05-15 01:20:00,
2013-05-14 19:30:00,62.0,41.0,29.47,South,189,14.0,16.0,46,0.00,,,0.00,51,Wunderground v.1.15,2013-05-15 01:30:00,
2013-05-14 19:35:00,62.8,40.5,29.47,SSW,200,14.0,16.0,44,0.00,,,0.00,58,Wunderground v.1.15,2013-05-15 01:35:00,
2013-05-14 19:40:00,63.6,40.7,29.47,South,185,14.0,15.0,43,0.00,,,0.00,49,Wunderground v.1.15,2013-05-15 01:40:00,
2013-05-14 19:45:00,63.7,40.8,29.47,SSE,162,11.0,15.0,43,0.00,,,0.00,33,Wunderground v.1.15,2013-05-15 01:45:00,
2013-05-14 19:50:00,62.9,40.6,29.47,SSE,167,9.0,9.0,44,0.00,,,0.00,47,Wunderground v.1.15,2013-05-15 01:50:00,
2013-05-14 19:55:00,63.1,40.8,29.48,SSE,165,8.0,11.0,44,0.00,,,0.00,46,Wunderground v.1.15,2013-05-15 01:55:00,
2013-05-14 20:00:00,63.5,40.0,29.49,SW,227,8.0,8.0,42,0.00,,,0.00,35,Wunderground v.1.15,2013-05-15 02:00:00,
2013-05-14 20:05:00,64.1,39.9,29.50,SSW,212,8.0,8.0,41,0.00,,,0.00,19,Wunderground v.1.15,2013-05-15 02:05:00,
2013-05-14 20:10:00,64.8,38.6,29.50,South,175,7.0,7.0,38,0.00,,,0.00,11,Wunderground v.1.15,2013-05-15 02:10:00,
2013-05-14 20:15:00,65.4,39.1,29.50,WSW,239,6.0,7.0,38,0.00,,,0.00,9,Wunderground v.1.15,2013-05-15 02:15:00,
2013-05-14 20:20:00,65.4,38.4,29.50,WSW,254,5.0,5.0,37,0.00,,,0.00,9,Wunderground v.1.15,2013-05-15 02:20:00,
2013-05-14 20:25:00,65.5,38.5,29.50,WSW,237,4.0,5.0,37,0.00,,,0.00,7,Wunderground v.1.15,2013-05-15 02:25:00,
2013-05-14 20:30:00,65.5,38.5,29.51,SW,231,4.0,4.0,37,0.00,,,0.00,5,Wunderground v.1.15,2013-05-15 02:30:00,
2013-05-14 20:35:00,65.1,38.8,29.52,West,262,5.0,17.0,38,0.00,,,0.00,0,Wunderground v.1.15,2013-05-15 02:35:00,
2013-05-14 20:45:00,63.2,39.7,29.52,West,261,14.0,20.0,42,0.00,,,0.00,0,Wunderground v.1.15,2013-05-15 02:45:00,
2013-05-14 20:50:00,62.7,39.3,29.53,SW,235,15.0,15.0,42,0.00,,,0.00,0,Wunderground v.1.15,2013-05-15 02:50:00,
2013-05-14 20:55:00,62.7,39.3,29.52,West,274,12.0,15.0,42,0.00,,,0.00,0,Wunderground v.1.15,2013-05-15 02:55:00,
2013-05-14 21:00:00,63.1,39.0,29.53,SW,230,8.0,8.0,41,0.00,,,0.00,0,Wunderground v.1.15,2013-05-15 03:00:00,
2013-05-14 21:10:00,63.5,40.6,29.54,SSW,204,7.0,9.0,43,0.00,,,0.00,0,Wunderground v.1.15,2013-05-15 03:10:00,
2013-05-14 21:15:00,63.4,40.5,29.55,NW,310,7.0,9.0,43,0.00,,,0.00,0,Wunderground v.1.15,2013-05-15 03:15:00,
2013-05-14 21:25:00,63.1,37.1,29.56,WNW,299,3.0,5.0,38,0.00,,,0.00,0,Wunderground v.1.15,2013-05-15 03:25:00,
2013-05-14 21:30:00,62.8,34.7,29.56,NNW,335,4.0,4.0,35,0.00,,,0.00,0,Wunderground v.1.15,2013-05-15 03:30:00,
2013-05-14 21:35:00,62.6,35.9,29.56,NW,320,4.0,5.0,37,0.00,,,0.00,0,Wunderground v.1.15,2013-05-15 03:35:00,
2013-05-14 21:45:00,62.0,40.4,29.58,East,93,5.0,8.0,45,0.00,,,0.00,0,Wunderground v.1.15,2013-05-15 03:45:00,
2013-05-14 21:50:00,61.8,39.6,29.58,NW,311,3.0,3.0,44,0.00,,,0.00,0,Wunderground v.1.15,2013-05-15 03:50:00,
2013-05-14 21:55:00,61.4,34.2,29.58,SW,221,1.0,3.0,36,0.00,,,0.00,0,Wunderground v.1.15,2013-05-15 03:55:00,
2013-05-14 22:05:00,60.4,31.1,29.59,NNW,337,2.0,2.0,33,0.00,,,0.00,0,Wunderground v.1.15,2013-05-15 04:05:00,
2013-05-14 22:10:00,60.0,31.5,29.59,NNW,328,2.0,2.0,34,0.00,,,0.00,0,Wunderground v.1.15,2013-05-15 04:10:00,
2013-05-14 22:20:00,59.0,32.1,29.60,NW,316,3.0,3.0,36,0.00,,,0.00,0,Wunderground v.1.15,2013-05-15 04:20:00,
2013-05-14 22:25:00,58.4,32.9,29.60,NW,305,3.0,5.0,38,0.00,,,0.00,0,Wunderground v.1.15,2013-05-15 04:25:00,
2013-05-14 22:35:00,57.2,31.1,29.61,NW,322,1.0,3.0,37,0.00,,,0.00,0,Wunderground v.1.15,2013-05-15 04:35:00,
2013-05-14 22:40:00,56.9,30.9,29.61,NW,322,1.0,2.0,37,0.00,,,0.00,0,Wunderground v.1.15,2013-05-15 04:40:00,
2013-05-14 22:45:00,56.4,31.1,29.61,NW,317,2.0,3.0,38,0.00,,,0.00,0,Wunderground v.1.15,2013-05-15 04:45:00,
2013-05-14 22:50:00,55.9,30.6,29.62,NW,307,3.0,3.0,38,0.00,,,0.00,0,Wunderground v.1.15,2013-05-15 04:50:00,
2013-05-14 22:55:00,55.6,31.0,29.62,NW,307,2.0,3.0,39,0.00,,,0.00,0,Wunderground v.1.15,2013-05-15 04:55:00,
2013-05-14 23:00:00,55.3,30.7,29.62,NW,307,1.0,1.0,39,0.00,,,0.00,0,Wunderground v.1.15,2013-05-15 05:00:00,
2013-05-14 23:10:00,54.5,30.6,29.62,NW,306,2.0,3.0,40,0.00,,,0.00,0,Wunderground v.1.15,2013-05-15 05:10:00,
2013-05-14 23:15:00,54.0,30.8,29.62,WNW,287,3.0,4.0,41,0.00,,,0.00,0,Wunderground v.1.15,2013-05-15 05:15:00,
2013-05-14 23:20:00,53.7,31.1,29.63,WNW,287,3.0,3.0,42,0.00,,,0.00,0,Wunderground v.1.15,2013-05-15 05:20:00,
2013-05-14 23:25:00,53.3,30.8,29.63,WNW,288,3.0,3.0,42,0.00,,,0.00,0,Wunderground v.1.15,2013-05-15 05:25:00,
2013-05-14 23:30:00,53.1,30.6,29.63,WNW,288,2.0,2.0,42,0.00,,,0.00,0,Wunderground v.1.15,2013-05-15 05:30:00,
2013-05-14 23:35:00,53.0,30.5,29.63,WNW,290,2.0,2.0,42,0.00,,,0.00,0,Wunderground v.1.15,2013-05-15 05:35:00,
2013-05-14 23:45:00,52.7,30.8,29.64,WNW,294,3.0,3.0,43,0.00,,,0.00,0,Wunderground v.1.15,2013-05-15 05:45:00,
2013-05-14 23:55:00,52.2,30.9,29.65,WNW,296,2.0,3.0,44,0.00,,,0.00,0,Wunderground v.1.15,2013-05-15 05:55:00,